[TLELIST] Archives

 

Current TLEs

February 6th 2008 PDT

HST 1 20580U 90037B 08036.23764256 .00000323 00000-0 12151-4 0 652 2 20580 028.4680 110.3168 0003490 059.2112 300.8822 15.00333296774992 ISS (ZARYA) 1 25544U 98067A 08036.07828380 .00027509 00000-0 16211-3 0 8595 2 25544 051.6403 342.6892 0005269 010.6176 097.8038 15.77957108527524 CXO 1 25867U 99040B 08035.29166667 .00000179 00000-0 10000-3 0 1655 2 25867 063.0930 083.9487 6602417 280.5156 349.3865 00.37805674 3127 ____________________________________________________________________ These 2-Line ...Continue Reading

Current TLEs

February 5th 2008 PDT

HST 1 20580U 90037B 08034.64113534 .00000332 00000-0 12902-4 0 645 2 20580 028.4671 120.7302 0003382 041.3543 318.7305 15.00332821774758 ISS (ZARYA) 1 25544U 98067A 08035.38853715 .00026372 00000-0 15588-3 0 8546 2 25544 051.6417 346.2520 0005323 008.7740 138.8263 15.77914274527414 CXO 1 25867U 99040B 08035.29166667 .00000179 00000-0 10000-3 0 1655 2 25867 063.0930 083.9487 6602417 280.5156 349.3865 00.37805674 3127 ____________________________________________________________________ These 2-Line ...Continue Reading

Current TLEs

February 4th 2008 PDT

HST 1 20580U 90037B 08033.57679670 .00000304 00000-0 10693-4 0 637 2 20580 028.4670 127.6723 0003319 028.4422 331.6347 15.00332244774593 ISS (ZARYA) 1 25544U 98067A 08034.04872506 .00026942 00000-0 15966-3 0 8427 2 25544 051.6413 353.1725 0005241 006.2808 085.5545 15.77843063527206 CXO 1 25867U 99040B 08035.29166667 .00000179 00000-0 10000-3 0 1655 2 25867 063.0930 083.9487 6602417 280.5156 349.3865 00.37805674 3127 ____________________________________________________________________ These 2-Line ...Continue Reading

Current TLEs

February 3rd 2008 PDT

HST 1 20580U 90037B 08032.51245721 .00000301 00000-0 10499-4 0 626 2 20580 028.4669 134.6131 0003257 016.3195 343.7493 15.00331906774439 ISS (ZARYA) 1 25544U 98067A 08033.24592593 .00026052 00000-0 15483-3 0 8362 2 25544 051.6422 357.3190 0005580 001.2781 207.4415 15.77797553527077 CXO 1 25867U 99040B 08032.66666667 .00000134 00000-0 10000-3 0 1648 2 25867 063.0827 084.0091 6596315 280.5454 352.0218 00.37805383 3114 ____________________________________________________________________ These 2-Line ...Continue Reading

Errors at space command

February 2nd 2008 PDT

Attention, There is a error on the servers at space command. The actual error is being sent from their servers not ours, and our servers check the email for content before sending. In this case unfortunately their servers actually send out that long error instead of a plain 500 server error. This then results in the actual error being transmitted instead of the email not being sent out. There is not much I can do at this time than wait for them to fix it. Even directly off firefox I have got a few errors directly, ...Continue Reading

Current TLEs

February 2nd 2008 PDT

misconfiguration and was unable to complete root@localhost and inform them of the time the error occurred, and anything you might have done that may have ____________________________________________________________________ These 2-Line Elements (TLEs) are direct from DoD/ USSTRATCOM/ US Space Command with permission. Updates are provided automatically daily. By receiving this email, you agree not to transfer any data or information received under this agreement, including the analysis of tracking data, to any o ...Continue Reading

Current TLEs

February 1st 2008 PDT

misconfiguration and was unable to complete root@localhost and inform them of the time the error occurred, and anything you might have done that may have ____________________________________________________________________ These 2-Line Elements (TLEs) are direct from DoD/ USSTRATCOM/ US Space Command with permission. Updates are provided automatically daily. By receiving this email, you agree not to transfer any data or information received under this agreement, including the analysis of tracking data, to any o ...Continue Reading

Current TLEs

January 31st 2008 PDT

HST 1 20580U 90037B 08029.78508615 .00000322 00000-0 12105-4 0 602 2 20580 028.4670 152.3976 0003196 345.3580 014.6916 15.00331290774025 ISS (ZARYA) 1 25544U 98067A 08030.38588499 .00025990 00000-0 15535-3 0 8160 2 25544 051.6422 012.0838 0005752 349.9876 163.2363 15.77669382526628 CXO 1 25867U 99040B 08030.04166667 .00000116 00000-0 10000-3 0 1632 2 25867 063.0704 084.0566 6589910 280.5924 354.6290 00.37805078 3108 ____________________________________________________________________ These 2-Line ...Continue Reading

Current TLEs

January 30th 2008 PDT

HST 1 20580U 90037B 08027.78944807 +.00000263 +00000-0 +75345-5 0 00708 2 20580 028.4668 165.4119 0003235 318.4521 041.5821 15.00330344773725 ISS (ZARYA) 1 25544U 98067A 08029.43302741 .00024732 00000-0 14842-3 0 8105 2 25544 051.6427 017.0041 0005651 354.1896 143.5761 15.77611827526479 CXO 1 25867U 99040B 08030.04166667 .00000116 00000-0 10000-3 0 1632 2 25867 063.0704 084.0566 6589910 280.5924 354.6290 00.37805078 3108 ____________________________________________________________________ These 2-Line ...Continue Reading

Current TLEs

January 29th 2008 PDT

HST 1 20580U 90037B 08026.79162908 .00000260 00000-0 72752-5 0 584 2 20580 028.4667 171.9184 0003259 307.3183 052.7109 15.00330113773575 ISS (ZARYA) 1 25544U 98067A 08028.42214209 .00016893 00000-0 10305-3 0 8024 2 25544 051.6418 022.2238 0005362 345.5259 167.2043 15.77540422526312 CXO 1 25867U 99040B 08027.41666667 .00000127 00000-0 10000-3 0 1625 2 25867 063.0562 084.1004 6585034 280.6477 357.2134 00.37805194 3098 ____________________________________________________________________ These 2-Line ...Continue Reading
  • This mailing list is a public mailing list - anyone may join or leave, at any time.
  • This mailing list is announce-only.

International Space Station (ISS) / Hubble Space Telescope (HST) / Chandra X-Ray Observatory Orbital Data via EMAIL

Privacy Policy:

Private list